Погода в Оленевке

Россия / Пензенская область     52°58′47″N   44°53′05″E
темп.,
°C
ветер,
м/с
пор.,
м/с
влажн.,
%
обл.,
%
осадки,
мм/ч
давл.,
гПа
погр.,
м
21 июня, пн
пн2100:00+19всв11870 0.0 102211
03:00+18в118964 0.0 102311
06:00+21в11815 0.0 102280
09:00+25вюв1168100 0.0 1022461
12:00+28ю115595 0.0 10221281
15:00+29ю1150100 0.0 10221482
18:00+28с116315 0.0 1021795
21:00+22ссв227650 0.0 102211
22 июня, вт
вт2200:00+20всв118146 0.0 102211
03:00+19всв11865 0.0 102311
06:00+22всв227922 0.0 102395
09:00+26в23653 0.0 1022534
12:00+29вюв235250 0.0 10221596
15:00+30юв23460 0.0 10211940
18:00+29ююв12602 0.0 1021231
21:00+23юв11753 0.0 102111
23 июня, ср
ср2300:00+21св11795 0.0 102211
03:00+20юв11820 0.0 102211
06:00+23всв11750 0.0 102271
09:00+27в12600 0.0 1021480
12:00+30ю11490 0.0 10211358
15:00+31з22412 0.0 10202072
18:00+24всв37742 0.1 1020117
21:00+22св11640 0.1 102011
24 июня, чт
чт2400:00+20в11680 0.0 102011
03:00+19ссз11640 0.0 102011
06:00+22с12700 0.0 102065
09:00+27ссз22620 0.0 1020511
12:00+29зсз22520 0.0 10191387
15:00+27зсз356284 1.7 10171337
18:00+19всв3784100 5.8 1018133
21:00+18з2288100 9.1 101916
25 июня, пт
пт2500:00+17всв118651 0.0 101711
03:00+17св22875 0.0 101812
06:00+20юв00805 0.0 101879
09:00+24ссз00695 0.0 1017395
12:00+27сз22615 0.0 1017956
15:00+29зсз11558 0.0 10161177
18:00+28юз22665 0.1 1015326
21:00+23юз11735 0.3 101411